Notices

What's New in latest Release from April 7th, 2021:

- Updated Glossary, including Speed of Maximum Gust, and Total Hourly Precipitation

- Updated national and regional climate services offices contacts and prices information

- Addition of station inventory lists for 1981-2010, 1971-2000, and 1961-1990 Normals.

If you haven't already, please take our survey and provide feedback about our website: https://eccc.sondage-survey.ca/f/LanguageSelection.aspx?s=442ca660-fcf1-47c0-95a9-59707d6fd709

Hourly Data Report for August 07, 2004

SHERBROOKE A
QUEBEC

45°26'00.000" N
71°41'00.000" W
241.40 m
7028124
71610
YSC

Download Data

Hourly Data (August 2004)
Hourly Data Report for August 7, 2004
TIME
LST
Temp Definition
°C
Dew Point Definition
°C
Rel Hum Definition
%
Precip. Amount Definition
mm

Wind Dir Definition
10's deg

Wind Spd Definition
km/h
Visibility Definition
km
Stn Press Definition
kPa
Hmdx Definition


Wind Chill Definition


Weather Definition


00:00 11.6 10.3 92   25 4 15.0 98.36      
01:00 11.4 10.4 94     0 15.0 98.35      
02:00 11.4 10.4 94     0 15.0 98.33      
03:00 10.7 9.9 95   28 6 15.0 98.31      
04:00 10.2 9.4 95   11 4 15.0 98.30      
05:00 10.5 9.8 95     0 15.0 98.33      
06:00 11.1 10.3 95     0 15.0 98.34      
07:00 11.4 10.6 95   14 6 19.3 98.38     Rain
08:00 12.4 11.8 96   22 4 19.3 98.38     Mostly Cloudy
09:00 13.0 12.3 96   23 4 12.9 98.37     Rain Showers
10:00 13.9 12.7 92   25 6 24.1 98.40     Mostly Cloudy
11:00 15.3 13.7 90   24 7 24.1 98.34     Mostly Cloudy
12:00 17.3 14.0 81   25 11 24.1 98.29     Mostly Cloudy
13:00 15.4 12.5 83   28 4 19.3 98.31     Rain Showers
14:00 14.9 13.4 91   1 6 16.1 98.28     Rain Showers
15:00 16.0 14.2 89   17 6 24.1 98.23     Mostly Cloudy
16:00 13.4 12.4 94   32 4 16.1 98.27     Thunderstorms,Moderate Rain Showers
17:00 13.5 12.0 91   32 7 15.0 98.32      
18:00 12.8 11.8 94   30 6 15.0 98.30      
19:00 12.8 11.9 94   29 15 15.0 98.34      
20:00 12.3 11.6 95   21 6 15.0 98.41      
21:00 12.1 11.4 95   24 6 15.0 98.44      
22:00 10.9 10.4 97   24 4 4.8 98.41      
23:00 11.7 11.3 97   24 7 15.0 98.44      

Notes on Data Quality.

Legend

  • E = Estimated
  • M = Missing
  • NA = Not Available*
  • [empty] = Indicates an unobserved value
Date modified: